Weather in Malyye Yaushi

Russia / Chuvash Republic     55°36′15″N   47°05′56″E
temp.,
°C
wind,
m/s
gust,
m/s
humid.,
%
clouds,
%
prec.,
mm/h
press.,
hPa
HPBL,
m
13 april, tue
tue1300:00+4ese379983 0.0 1036126
03:00+6se38100100 0.0 1035180
06:00+5se36100100 0.0 103595
09:00+8sse359897 0.0 1034162
12:00+16sse476367 0.0 1033712
15:00+17s474822 0.0 1031695
18:00+12sse34615 0.0 103156
21:00+9sse46665 0.0 103170
14 april, wed
wed1400:00+7s336857 0.0 103032
03:00+6s336787 0.0 103019
06:00+6sse33667 0.0 102927
09:00+13sse465142 0.0 1028322
12:00+17sse56397 0.0 1027885
15:00+18sse57465 0.0 10251082
18:00+15se48685 0.0 1024204
21:00+11sse38847 0.0 1024143
15 april, thu
thu1500:00+10sse36870 0.0 102387
03:00+9s22890 0.0 102221
06:00+9s22890 0.0 102132
09:00+14s346222 0.0 1020481
12:00+18sw3343100 0.0 10191563
15:00+18wsw2338100 0.0 10191502
18:00+15wnw225111 0.0 101811
21:00+12nne2260100 0.0 101910
16 april, fri
fri1600:00+11ene226487 0.0 101914
03:00+9ne3573100 0.0 101975
06:00+7ne599598 0.0 1020262
09:00+10ene677797 0.0 1021472
12:00+13ene666581 0.0 1022805
15:00+14ene6760100 0.0 10221091
18:00+12ene5968100 0.0 1023445
21:00+9ene6117080 0.0 1024459
17 april, sat
sat1700:00+6ene5126458 0.0 1025309
03:00+4ene497085 0.0 1026225
06:00+3ene497353 0.0 1028234
09:00+8ene56506 0.0 1028737
12:00+11ene554060 0.0 10271249
15:00+12ne453814 0.0 10261560
18:00+10nne34491 0.0 102696
21:00+6nne33585 0.0 102743